Dewpoint
73 72 72 71 72 73 70 68 57 61 60 54 54 57 55 61 64 61 63 63 60 64 63 63 62 63 63 63 60 62 63 57 63 52 49 64 70 70 72 73 73 73 73 73 74 75 75 76 76 75 76 76 76 76 76 76 76 76 76 76 76 76 76 76 76 76 76 76 76 75 75 75 76 76 75 75 75 75 75 75 75 75 74 74 74 74 74 74 74 74 73 74 74 73 73 73 73
72 72 72 74 72 71 64 68 59 56 56 54 55 59 60 63 61 61 61 62 63 61 62 63 62 65 64 63 62 60 61 65 66 65 67 69 70 71 73 73 73 73 73 74 74 75 75 76 76 76 76 76 76 76 76 76 76 76 76 76 76 76 76 76 76 76 76 75 76 75 75 75 75 75 75 75 75 75 75 74 74 74 74 74 74 74 74 74 74 74 74 74 73 73 73 72 72
71 72 72 74 72 69 67 66 56 54 54 50 52 59 63 61 61 62 64 63 63 64 65 66 65 63 62 62 59 61 58 66 66 66 67 70 69 70 73 74 74 74 74 74 75 75 75 76 76 76 76 76 76 76 76 76 76 76 76 76 76 76 76 76 75 75 75 75 76 74 74 75 74 75 75 75 74 75 74 74 74 74 74 74 74 74 74 74 74 73 73 74 73 73 72 72 73
72 72 71 72 65 69 63 62 58 56 52 52 53 59 61 60 63 63 63 63 63 64 65 65 64 63 65 60 61 63 63 63 66 67 66 68 69 72 73 74 74 74 74 75 75 75 75 76 76 76 76 76 76 76 76 76 76 76 76 76 76 76 76 75 75 75 75 75 75 75 75 75 75 75 75 75 75 75 75 74 74 74 74 74 75 74 74 74 74 74 73 74 74 73 73 72 72
71 71 74 70 67 62 62 60 59 57 53 54 53 58 61 60 61 61 62 63 62 63 63 64 61 63 65 62 64 60 62 65 66 67 68 69 72 72 73 74 74 74 74 75 75 75 76 77 76 76 76 76 76 76 76 76 76 76 76 76 76 76 76 75 75 75 75 74 74 75 75 75 75 75 75 75 75 75 75 75 75 75 75 75 75 75 75 74 73 73 73 73 74 74 73 72 73
71 71 72 71 64 69 64 57 56 56 58 60 58 60 62 61 61 63 60 65 62 62 63 62 61 61 61 62 64 63 65 62 66 67 68 70 72 72 73 74 74 74 75 75 75 75 76 77 76 76 76 76 75 76 76 76 76 76 76 76 76 75 75 75 75 75 75 75 74 75 75 75 75 75 75 74 75 75 75 75 75 75 75 75 75 75 75 74 74 73 74 73 74 74 73 73 74
69 71 70 69 68 68 59 57 55 56 59 60 61 61 62 65 66 64 64 61 62 62 63 60 61 61 60 63 64 65 67 67 66 67 70 71 72 72 73 73 74 74 75 75 75 75 76 76 76 76 76 76 76 76 76 76 76 76 76 76 75 75 75 75 75 75 75 74 75 75 75 74 74 75 75 75 74 75 75 75 75 75 75 75 75 74 74 74 75 74 74 73 73 73 73 73 73
73 69 67 62 61 62 57 58 57 59 61 60 65 63 64 64 64 64 62 61 59 62 61 60 61 62 62 64 62 66 67 68 68 70 71 71 71 72 73 73 73 74 75 75 75 75 76 76 77 76 76 76 76 76 76 76 76 76 75 76 75 75 75 75 75 75 75 75 75 75 74 74 74 75 75 75 75 75 75 75 75 75 75 75 75 74 74 74 75 74 74 73 73 73 73 73 74
70 69 70 63 58 60 57 56 57 59 60 60 63 66 64 65 65 64 62 62 59 61 59 59 60 59 61 63 63 66 67 69 70 71 70 71 71 72 72 73 73 74 74 75 75 76 76 76 76 76 76 76 76 76 76 76 76 75 75 75 75 75 75 75 75 75 75 75 75 75 75 75 75 75 75 75 75 75 75 75 75 75 74 74 75 74 73 74 74 75 75 74 73 73 72 74 74
69 68 62 61 60 55 55 56 56 58 60 62 61 64 66 65 64 63 62 61 59 59 60 61 62 61 63 62 64 66 67 69 70 69 70 70 71 71 72 73 74 74 74 75 75 75 75 76 76 76 76 76 76 76 76 75 75 75 75 75 75 75 75 75 75 75 74 74 75 75 75 75 75 75 75 75 75 75 75 75 75 74 74 74 74 75 75 75 75 75 75 74 73 73 73 74 74
65 67 68 60 56 53 52 52 56 58 60 63 64 66 66 66 64 62 61 62 60 61 62 63 62 62 63 64 65 68 69 69 68 68 70 70 71 71 72 73 74 74 75 75 75 75 75 75 77 76 75 76 76 76 76 75 75 75 75 75 75 75 75 75 75 75 75 75 75 75 75 75 75 75 75 75 75 75 75 75 75 75 75 75 75 75 75 75 74 75 75 74 74 73 73 74 75
63 63 64 56 53 52 54 54 54 57 59 60 63 65 67 64 62 61 62 59 61 61 61 62 61 63 63 63 65 67 68 68 68 69 70 70 70 71 72 73 74 74 75 75 75 75 75 76 75 75 76 76 76 76 75 75 75 75 75 76 75 75 75 75 75 75 75 76 75 76 76 75 75 75 75 75 75 75 75 75 75 75 75 76 76 76 75 75 75 75 75 74 75 74 74 74 74
63 63 60 54 53 55 56 55 54 58 57 59 62 63 65 63 63 64 64 60 61 60 60 64 63 64 61 63 66 67 67 68 69 69 70 70 70 71 72 73 74 74 75 75 75 75 75 75 74 74 75 76 76 75 75 75 75 75 75 75 75 75 75 76 75 75 75 75 75 75 75 75 75 75 75 75 75 75 75 75 75 75 76 76 76 76 75 75 75 74 74 74 75 74 74 73 74
64 63 59 54 57 56 55 55 55 54 54 60 60 64 63 62 63 65 66 59 61 60 62 63 63 64 63 64 66 66 66 68 69 69 69 70 71 72 72 73 74 74 75 75 75 75 75 75 74 74 75 75 75 75 75 75 75 75 75 75 75 76 76 76 76 76 76 76 75 75 75 75 75 75 75 75 75 75 75 75 75 76 76 76 76 75 75 75 75 74 75 75 75 75 74 74 74
65 64 60 56 54 56 56 53 53 54 53 59 60 62 61 64 65 62 63 61 61 63 63 64 64 61 61 62 63 64 67 68 68 68 69 70 71 72 72 73 74 74 74 75 75 74 75 74 74 74 75 75 75 75 75 75 75 76 75 76 76 76 76 76 76 76 76 76 75 75 75 75 75 75 75 75 75 75 75 75 76 76 75 75 75 75 74 74 75 75 74 75 75 75 75 75 75
65 61 59 54 52 53 53 54 54 51 52 59 61 62 63 65 66 61 62 64 61 63 63 62 63 62 62 62 63 65 67 68 68 68 68 70 71 72 72 73 73 74 74 74 74 74 75 74 74 74 75 75 75 75 75 75 76 75 75 76 76 76 76 75 75 75 76 76 75 75 75 75 75 75 75 75 75 75 75 75 76 75 74 73 74 75 75 74 75 75 74 74 74 74 74 74 74
65 64 58 54 53 53 53 53 51 47 55 60 64 62 61 62 66 68 68 69 62 61 61 63 62 63 63 62 65 67 67 68 68 67 69 70 71 71 71 72 73 73 74 74 74 74 74 74 74 74 75 75 75 75 75 75 75 75 75 76 76 76 75 75 75 76 76 76 76 76 76 75 75 75 75 75 76 76 76 76 76 75 74 74 74 74 74 75 75 75 74 74 74 74 74 74 74
61 60 57 54 54 52 52 53 50 50 54 60 62 62 62 61 62 64 66 64 65 61 61 62 63 63 63 65 66 67 67 67 67 67 68 69 70 70 70 71 72 72 73 73 74 74 74 74 75 75 75 75 75 76 76 76 76 76 75 75 75 75 75 75 75 75 76 75 76 76 75 76 74 74 75 76 76 76 76 76 76 76 76 75 74 74 74 73 74 74 75 75 75 75 75 74 75
58 57 55 54 52 53 52 52 52 53 53 58 60 62 60 60 60 63 62 61 61 60 60 61 62 63 64 65 66 66 66 66 66 67 68 69 69 69 69 70 71 71 72 73 73 74 74 74 75 75 75 75 75 75 76 76 76 75 75 75 76 76 76 76 75 76 74 74 75 75 76 75 74 75 76 77 77 77 77 76 75 75 75 75 75 75 74 73 73 74 74 74 74 75 76 73 73
58 58 53 54 54 53 56 53 52 55 56 58 59 60 59 60 61 63 60 60 60 58 59 61 62 62 63 65 65 66 66 66 66 67 68 68 68 68 69 69 70 71 72 72 73 74 74 74 74 75 75 75 75 75 75 75 75 75 75 75 75 75 75 75 74 74 73 73 74 74 75 75 75 74 77 76 76 76 75 76 76 75 75 75 75 78 76 75 73 73 73 74 78 77 73 73 73
57 57 56 55 55 54 53 53 52 54 56 57 58 59 58 60 61 61 60 59 59 58 60 61 62 63 63 64 65 65 66 66 66 67 67 68 68 68 68 69 69 71 72 72 73 73 73 74 74 75 75 75 75 75 75 75 75 75 74 74 74 74 74 74 73 73 73 73 73 74 74 75 75 74 75 75 74 74 74 74 74 74 73 74 78 73 73 74 75 74 73 75 73 75 74 72 73
52 56 57 56 55 52 54 53 52 53 56 58 58 58 57 59 60 61 60 57 57 58 60 61 63 63 64 64 65 65 65 66 66 66 67 67 67 67 68 69 70 71 72 71 72 72 73 73 74 74 75 75 75 75 75 76 76 75 74 74 74 74 74 73 74 73 73 73 73 74 75 75 74 74 74 73 73 73 73 73 72 73 72 74 76 73 73 73 73 72 73 74 73 73 72 72 72
48 49 51 53 54 53 54 53 53 54 55 56 56 57 58 58 58 60 60 58 59 59 60 62 63 64 64 65 65 65 65 66 66 66 67 67 67 67 68 68 69 70 71 71 71 72 73 73 73 74 74 74 74 75 75 76 75 75 74 74 74 74 73 73 73 73 73 73 73 74 74 74 73 74 73 73 73 73 73 73 73 73 73 73 75 73 73 73 73 73 72 73 73 72 72 72 73
47 47 49 49 49 52 52 53 53 54 54 55 56 56 56 57 57 58 59 59 59 59 61 63 64 64 64 64 65 65 65 66 66 66 67 67 67 67 67 68 69 70 71 70 71 72 73 72 73 73 74 74 74 74 75 75 74 75 75 76 75 75 74 73 73 73 73 72 73 73 75 73 74 74 74 73 73 73 73 73 73 73 73 73 75 73 73 73 72 72 72 72 72 72 72 72 72
45 46 47 48 49 48 49 52 52 54 54 55 52 52 53 55 56 57 58 59 59 59 62 63 64 64 64 64 64 65 65 66 66 66 67 67 67 67 67 68 69 70 70 70 70 71 72 72 72 73 73 74 73 74 74 75 74 74 74 75 74 76 74 74 73 73 73 73 73 73 75 73 74 74 74 74 74 74 73 73 73 73 73 73 74 73 72 72 71 71 71 71 71 71 71 71 72
45 46 47 48 49 49 47 50 52 52 53 52 50 50 52 54 54 55 57 58 59 60 62 63 64 64 64 64 65 65 65 65 66 66 66 67 67 67 67 67 69 69 69 70 70 71 71 71 71 72 72 73 73 73 74 74 74 74 74 74 74 76 74 74 73 73 74 74 73 73 74 73 73 74 74 74 74 73 73 73 73 73 73 73 73 72 73 72 71 71 71 71 72 71 71 71 71
46 45 46 47 48 48 48 49 52 52 52 51 49 49 50 51 52 50 56 57 59 61 62 63 63 63 64 64 64 65 65 65 65 66 66 66 66 66 67 67 68 68 69 69 70 70 71 70 70 71 72 74 73 73 73 73 73 73 73 73 74 74 74 74 74 73 74 74 73 74 73 74 73 74 74 74 73 73 73 73 72 72 73 73 73 72 73 72 72 71 71 71 70 71 71 72 72
43 44 45 46 46 47 47 49 51 51 51 52 50 50 50 51 51 50 54 58 59 60 61 62 63 63 63 64 64 65 65 65 66 66 66 66 66 66 66 67 68 68 68 68 69 70 70 69 69 70 71 73 73 72 72 72 72 72 72 72 73 73 74 73 72 73 74 73 74 74 73 73 75 74 74 73 73 73 73 73 72 72 73 73 74 73 73 73 72 72 72 72 72 72 71 70 70
43 43 43 44 45 44 42 44 50 51 50 52 51 51 50 50 49 50 57 58 59 60 61 62 62 63 63 63 63 64 65 65 65 66 66 66 66 66 66 67 67 68 68 68 69 70 69 69 69 69 70 72 72 71 71 70 71 71 71 71 72 72 72 72 71 72 73 73 74 74 73 72 75 74 74 74 76 73 73 73 73 74 73 74 74 74 74 72 73 73 72 73 71 70 70 70 72
42 43 43 43 43 42 41 42 49 50 49 52 51 46 47 48 50 53 58 58 58 59 60 61 62 62 62 63 63 64 65 65 65 65 66 66 66 66 66 67 67 67 67 68 69 69 69 69 69 68 70 71 72 71 70 69 70 70 71 70 71 72 71 71 72 72 73 73 73 73 72 72 74 74 74 73 74 73 73 73 73 73 74 74 74 73 72 72 71 71 71 71 74 72 69 69 70
41 42 43 42 42 41 41 43 48 48 49 51 50 46 46 47 49 56 58 58 58 58 59 60 61 61 62 63 63 64 64 65 65 65 66 66 66 66 66 66 67 67 68 67 68 69 70 69 68 67 70 70 72 71 70 68 69 70 70 70 70 71 71 70 70 71 72 73 73 73 72 73 74 74 74 73 74 73 73 72 72 73 73 74 73 73 72 72 71 70 72 70 70 71 71 71 70
36 36 35 37 40 40 38 41 48 47 48 49 48 46 46 47 48 57 58 57 57 57 58 59 60 60 61 62 63 63 63 64 64 64 65 65 66 66 66 66 67 67 67 67 68 69 69 68 68 66 69 69 70 71 70 69 68 69 70 71 69 70 71 70 70 70 72 72 72 72 72 73 73 73 73 73 73 73 73 73 73 73 74 75 74 74 73 72 71 71 72 70 69 69 71 71 70
32 32 35 32 34 35 33 34 46 48 48 48 47 45 47 46 48 56 57 57 57 57 57 58 59 59 60 61 62 62 63 63 64 64 64 65 65 66 66 66 67 67 67 67 68 68 68 68 69 66 67 69 70 70 70 69 68 68 69 70 70 70 70 70 70 70 72 72 72 72 72 73 72 73 73 73 73 73 73 73 73 73 75 74 74 74 74 74 73 72 73 74 70 68 71 70 68
32 31 31 30 30 32 31 34 40 46 47 46 47 44 44 48 48 55 57 57 57 57 57 57 58 58 59 60 60 61 62 62 62 63 63 64 65 65 66 67 67 66 66 66 67 68 67 67 67 66 67 68 69 69 70 70 69 68 68 70 72 70 70 70 70 71 72 72 72 72 73 74 73 72 73 73 73 73 73 73 73 74 74 73 73 74 74 73 73 73 73 73 73 70 69 68 67
33 30 30 29 31 31 31 31 34 45 46 45 46 45 44 47 48 55 57 57 57 57 57 57 57 58 58 59 59 59 61 61 62 62 63 64 64 65 65 66 66 66 66 66 67 67 67 67 67 66 67 68 69 69 70 70 70 69 69 69 70 70 70 70 70 71 72 72 72 72 73 74 74 73 73 74 73 74 74 73 73 74 74 73 74 73 73 73 73 72 71 70 72 71 69 68 66
31 30 30 30 28 29 30 32 34 45 45 44 44 44 44 45 48 52 57 57 57 57 57 57 57 58 58 58 59 59 59 60 61 62 62 63 64 65 65 65 66 66 66 66 67 67 67 67 67 66 67 68 69 69 70 70 70 69 68 69 70 70 70 70 71 71 72 72 72 72 73 73 74 74 73 74 73 74 74 74 73 74 73 73 74 72 72 72 72 72 71 70 69 71 71 69 66
31 30 30 29 29 28 29 30 34 40 43 44 43 43 44 45 48 50 56 57 57 57 57 57 57 57 58 58 58 58 59 59 61 61 62 63 63 64 65 65 65 66 66 66 66 66 66 66 67 66 66 68 68 69 70 69 69 69 69 68 68 69 69 69 70 71 72 72 72 72 73 73 73 74 74 74 73 75 74 74 73 74 73 74 74 73 73 72 72 72 72 73 69 68 68 67 64
27 27 29 29 29 29 30 29 30 36 37 37 43 42 42 45 48 49 53 56 56 56 57 57 57 58 58 58 58 58 58 59 60 61 61 62 63 64 65 65 66 65 66 66 66 66 66 66 67 67 67 68 68 69 70 69 69 69 68 68 68 69 69 69 68 70 71 72 73 72 73 73 73 74 75 74 74 74 74 73 73 73 73 73 73 73 72 75 74 73 71 70 71 68 67 68 64
27 26 27 27 27 30 29 30 30 33 35 34 38 38 39 44 47 48 51 55 56 56 57 57 57 57 58 58 58 58 58 58 59 60 61 62 63 64 65 65 65 65 66 66 66 66 66 67 67 67 67 67 68 69 70 69 69 69 69 69 69 69 69 69 68 70 72 71 72 73 73 73 73 73 74 74 74 74 73 73 72 73 73 74 73 72 73 73 72 72 71 70 69 69 70 70 64
27 26 26 25 27 27 27 28 29 31 34 35 37 37 39 42 47 48 50 54 55 56 57 57 57 57 58 58 58 58 58 58 58 59 60 61 62 64 64 65 65 65 66 66 66 66 67 68 68 68 68 68 68 69 70 70 70 70 70 69 70 69 69 70 70 70 70 71 71 73 73 73 73 72 73 74 74 74 73 73 72 72 73 74 74 73 72 72 71 71 71 71 69 67 67 67 67
28 26 26 25 26 27 27 28 27 28 28 30 31 39 39 40 44 47 49 52 54 55 56 57 57 58 58 58 58 58 58 58 58 59 59 61 62 63 64 65 65 65 66 66 66 67 67 67 68 68 68 68 68 70 70 70 71 70 70 70 71 70 70 70 69 70 69 70 70 72 73 73 73 73 73 74 74 73 73 73 72 72 73 73 74 73 72 72 73 72 72 71 69 67 66 66 68
30 28 26 26 27 27 27 27 26 26 26 29 30 31 33 40 42 45 48 50 51 53 55 55 56 57 58 57 57 58 59 59 59 59 59 60 61 63 64 64 65 65 66 66 67 67 67 68 68 69 69 69 69 69 70 70 70 70 69 69 68 68 68 68 68 68 69 69 69 71 72 73 73 73 73 73 74 74 74 73 72 72 73 74 74 73 73 72 72 72 73 72 70 68 67 66 64
28 29 28 26 26 26 26 27 27 27 26 29 34 27 28 39 39 43 47 49 50 51 53 54 55 56 57 57 57 57 58 58 59 59 59 60 61 62 63 64 64 65 65 67 67 67 68 68 68 69 70 70 70 70 70 71 70 70 69 68 68 68 68 68 68 68 69 69 70 71 72 73 73 72 73 72 73 74 74 73 73 73 73 74 75 73 73 73 73 73 73 72 71 71 67 65 64
28 29 27 26 26 25 26 27 27 29 33 29 29 33 29 29 37 41 45 48 49 49 51 53 54 55 56 57 58 58 58 58 59 59 59 60 61 62 62 64 64 64 65 66 67 67 67 68 68 69 70 71 70 70 70 71 70 70 69 69 69 68 68 68 68 68 69 70 70 71 72 72 73 73 72 73 73 73 74 74 73 73 73 74 75 74 73 73 73 73 74 73 72 71 69 67 65
30 28 27 26 25 25 25 25 26 27 28 26 28 31 28 34 35 41 44 46 47 48 49 51 53 53 55 56 58 58 58 58 59 59 59 60 60 61 62 63 64 64 65 66 67 67 68 68 68 69 69 70 70 70 70 70 70 70 70 69 69 69 68 68 69 69 69 71 70 71 72 72 73 73 73 73 73 73 74 74 74 73 73 74 75 74 74 74 73 73 73 73 72 72 70 69 66
31 28 28 27 26 26 25 25 26 28 28 25 27 27 25 27 37 40 44 45 45 47 48 49 51 52 54 55 57 58 59 59 59 59 59 60 60 61 62 63 64 64 65 66 66 67 68 68 68 69 69 70 70 70 71 70 70 70 70 69 69 69 69 69 69 69 69 70 69 71 71 72 72 73 73 73 73 73 74 74 74 74 74 74 75 75 74 74 74 73 73 73 73 72 71 70 68
32 28 27 27 27 26 30 28 28 29 24 25 25 26 26 24 29 38 43 44 45 46 48 49 50 51 53 54 56 57 58 59 59 59 59 60 60 61 62 62 63 64 65 66 66 67 67 68 68 68 69 69 70 70 71 70 70 70 69 69 69 69 69 69 69 69 69 69 68 70 71 72 72 72 73 73 73 73 73 74 74 74 74 75 75 75 74 74 74 74 74 73 73 72 71 70 70
33 30 29 30 29 30 29 30 31 24 22 26 25 25 25 24 27 36 43 45 46 46 46 48 49 50 51 53 55 56 58 59 59 59 59 60 60 61 61 62 63 63 64 65 66 67 67 68 68 68 69 69 70 70 70 70 70 70 70 69 69 69 69 69 69 68 69 68 68 68 70 71 72 72 72 73 73 73 73 74 75 75 75 74 75 75 75 75 75 74 73 73 73 72 71 71 70
33 30 31 29 27 26 24 26 24 24 23 27 25 24 23 24 25 32 38 43 45 46 46 47 49 50 51 52 54 56 57 58 59 59 59 60 60 60 61 61 63 63 64 65 66 66 67 67 68 68 68 69 70 70 70 70 70 70 70 69 69 69 69 69 69 69 69 68 68 68 70 70 71 71 72 72 72 73 73 73 74 74 75 75 75 75 75 75 75 74 74 73 73 72 71 71 70
32 31 29 28 26 24 23 24 22 21 25 25 24 24 22 26 24 26 34 39 45 46 46 47 49 49 50 51 53 55 57 58 59 59 60 60 60 60 61 61 62 63 64 65 65 66 67 67 68 68 68 69 70 70 70 70 70 70 70 70 69 70 69 69 69 69 69 69 69 68 68 70 70 71 71 72 72 73 73 73 74 74 74 75 75 75 75 75 75 74 74 73 73 72 72 71 70
31 32 29 28 27 25 23 23 21 21 23 23 22 21 23 19 25 22 29 37 42 46 47 47 49 50 50 51 52 54 56 58 59 59 60 60 60 60 60 61 62 63 63 64 65 66 67 67 68 68 68 69 70 70 70 70 70 70 70 70 70 70 69 69 69 70 69 69 69 68 68 69 70 71 71 72 72 72 73 73 73 74 74 74 75 75 75 75 75 74 74 74 73 73 72 71 70
31 32 32 28 27 31 24 25 20 19 20 20 19 21 24 20 30 37 26 34 39 44 46 47 48 50 50 51 51 53 55 57 58 59 60 60 60 60 60 61 62 62 63 64 65 66 66 67 67 68 68 69 69 70 70 70 70 70 70 70 70 70 70 70 70 70 70 69 69 69 68 68 70 70 71 72 72 72 72 73 73 74 74 74 75 75 75 75 74 74 74 74 73 73 72 71 71
29 30 29 30 26 24 26 35 31 26 22 18 27 20 20 19 18 14 28 28 36 40 43 45 46 48 50 50 51 52 55 57 58 59 60 60 61 61 60 61 61 62 63 63 65 65 66 67 67 67 68 68 69 70 70 70 70 70 70 70 70 70 70 69 69 69 69 69 69 69 69 68 69 70 71 72 72 72 72 72 73 73 74 74 74 75 75 74 74 74 74 73 73 73 72 71 71
27 28 29 25 26 27 25 22 24 18 16 21 19 16 15 14 18 27 18 24 28 35 40 42 44 46 47 49 51 52 54 56 58 59 60 60 61 61 60 61 61 62 62 63 64 65 66 66 67 67 68 68 68 69 69 70 70 69 69 69 70 69 69 69 69 69 69 69 69 69 69 69 68 70 71 72 72 72 72 74 72 73 74 74 74 74 75 74 74 74 74 73 73 73 72 72 71
25 26 24 26 23 23 25 26 20 16 15 16 19 20 21 17 21 24 16 16 19 29 37 39 42 44 46 48 50 52 54 55 57 58 59 60 61 61 61 60 61 62 63 63 64 65 65 66 66 67 67 67 68 69 69 70 70 70 70 69 69 69 69 69 70 70 70 69 69 69 69 69 69 70 71 71 72 72 72 72 72 72 73 74 74 74 74 74 74 74 74 73 73 73 72 72 71
26 23 25 26 23 24 23 23 26 19 19 17 13 18 15 22 14 16 15 16 16 18 37 39 38 42 46 47 49 51 53 55 56 58 59 60 60 61 61 61 61 61 62 63 63 64 65 65 66 66 67 67 68 68 69 69 69 69 69 69 69 69 70 69 69 70 69 69 69 69 69 69 69 70 71 71 72 72 72 72 72 72 72 73 73 74 74 74 74 74 74 73 73 73 72 72 72
22 21 21 23 25 24 23 24 18 20 23 17 14 11 20 24 24 15 15 16 16 17 36 42 40 40 44 47 49 51 53 54 56 57 59 60 60 61 61 61 61 62 62 63 63 64 64 65 65 66 66 67 67 67 68 69 69 69 69 69 69 69 69 69 69 69 70 69 70 70 69 69 70 71 71 71 71 72 72 72 72 72 72 72 73 73 74 74 74 74 74 74 73 73 72 72 72
20 21 21 21 20 20 19 19 20 23 20 17 13 10 21 22 23 15 14 15 14 15 31 43 44 42 43 47 48 50 52 54 56 57 58 59 60 61 61 61 62 62 62 62 63 63 64 64 65 65 66 66 66 67 68 68 69 68 68 69 69 69 69 69 69 69 69 70 70 70 70 70 69 70 72 71 71 71 72 72 72 72 72 72 72 73 73 74 73 73 73 74 73 73 72 72 72